Regional Weather Roundup
Issued by NWS Kansas City/Pleasant Hill, MO

Home | Current Version | Previous Version | Text Only | Print | Product List | Glossary On
Versions: 1 2 3 4 5 6 7 8 9 10 11 12 13 14 15 16 17 18 19 20 21 22 23 24 25 26 27 28 29 30 31 32 33 34 35 36 37 38 39 40 41 42 43 44 45 46 47 48 49 50
000
ASUS43 KEAX 250410
RWREAX

WEATHER ROUNDUP FOR EASTERN KANSAS AND NORTHWEST MISSOURI
NATIONAL WEATHER SERVICE KANSAS CITY/PLEASANT HILL MO
1000 PM CST WED DEC 24 2014

KSZ040-057-103>105-MOZ028-029-037-043-250500-
...KANSAS CITY METROPOLITAN AREA...

CITY           SKY/WX    TMP DP  RH WIND       PRES   REMARKS
K.C. INTL      CLEAR     30  27  88 S8        29.81F WCI  22
K.C. DOWNTOWN  CLEAR     33  27  78 SW7       29.83F WCI  27
LEES SUMMIT    PTCLDY    32  27  81 SW7       29.83F WCI  26
OLATHE - IXD   CLEAR     29  27  92 S7        29.83F WCI  22
OLATHE - OJC   CLEAR     31  28  89 S7        29.82F WCI  24
LAWRENCE       CLEAR     28  26  92 S6        29.83F WCI  22

$$

MOZ001>008-011>017-020>025-030>033-038>040-044>046-053-054-250500-
...NORTHERN AND CENTRAL MISSOURI...

CITY           SKY/WX    TMP DP  RH WIND       PRES   REMARKS
ST. JOSEPH     CLEAR     31  27  85 S7        29.81F WCI  24
MOSBY          CLOUDY    34  30  86 SW7       29.83F WCI  28
WARRENSBURG    CLOUDY    34  30  86 SW13G21   29.85F WCI  25
WHITEMAN AFB   CLOUDY    35  29  80 SW13      29.85F WCI  26
CLINTON        CLOUDY    36  32  87 W8        29.90R WCI  29
SEDALIA        CLOUDY    36  29  75 W12G21    29.87R WCI  28
WARSAW         NOT AVBL
MARSHALL       CLOUDY    37  32  81 W12G17    29.86R WCI  30
CHILLICOTHE      N/A     35  29  78 VRB7      29.83S WCI  29
MOBERLY        CLOUDY    36  30  80 W15       29.83R WCI  26
KIRKSVILLE     CLOUDY    33  30  88 W9        29.79R WCI  25

$$

MOZ041-047>049-056>058-063>065-088>090-097-250500-
...EASTERN AND SOUTHERN MISSOURI...

CITY           SKY/WX    TMP DP  RH WIND       PRES   REMARKS
ST. LOUIS INTL CLOUDY    38  33  82 W9        29.85R WCI  31
SPIRIT OF STL  LGT RAIN  37  35  92 NW7       29.85R WCI  32
COLUMBIA       CLOUDY    36  32  85 W12       29.84S WCI  28
JEFFERSON CITY CLOUDY    38  30  73 W9        29.87S WCI  31
MEXICO         CLOUDY    37  36  93 W7        29.82S WCI  32
HANNIBAL       CLOUDY    37  28  70 W12G18    29.81R WCI  30
ROLLA          CLOUDY    35  32  88 SW9       29.84R WCI  28
LEBANON        CLOUDY    36  30  80 W12G22    29.89R WCI  27
OSAGE BEACH    CLOUDY    37  28  70 SW10      29.88R WCI  30
SPRINGFIELD    CLEAR     32  28  85 SW6       29.90F WCI  26
BRANSON        CLOUDY    36  28  75 SW8       29.95S WCI  29
NEVADA         CLEAR     30  28  93 S8        29.91S WCI  23
JOPLIN         CLEAR     31  28  89 S8        29.93R WCI  23
WEST PLAINS    CLOUDY    37  30  75 W8        29.93R WCI  31

$$

IAZ060-094-KSZ022-034>040-054-083-096-NEZ052-066-093-250500-
...KANSAS...SOUTHEAST NEBRASKA AND IOWA...

CITY           SKY/WX    TMP DP  RH WIND       PRES   REMARKS
TOPEKA         CLEAR     32  28  85 S7        29.81F WCI  26
MANHATTAN      CLEAR     26  23  88 CALM      29.76F
EMPORIA        CLEAR     29  27  92 S12       29.81F WCI  19
CHANUTE        CLEAR     30  28  92 S9        29.87F WCI  22
WICHITA        PTCLDY    30  23  75 S10       29.81F WCI  21
OMAHA          CLEAR     29  27  92 S9        29.72F WCI  20
LINCOLN        PTCLDY    26  24  92 SE7       29.69F WCI  18
FALLS CITY     CLEAR     30  27  88 S8        29.75F WCI  22
LAMONI         CLOUDY    31  28  89 SW16      29.76F WCI  20
DES MOINES     CLOUDY    32  28  85 W13       29.74R WCI  22

$$




USA.gov is the U.S. government's official web portal to all federal, state and local government web resources and services.